Torna al catalogo

YUNYAO-1 22

AttivoMeteoSSO
NORAD 61242·PAYLOAD·🇨🇳 China
Questo nome del satellite non è ancora stato confermato da fonti ufficiali.

Lanciato Sep 24, 2024 da Jiuquan Satellite Launch Center

Loading…

Prossimi Passaggi (prossime 24 ore)

TLE

AggiornatoSource: Space-Track

Epoca: Sep 14, 2026, 23:38 UTC

1 61242U 24174E   26257.98477632  .00005285  00000-0  19312-3 0  9990
2 61242  97.4471 268.8980 0010919 277.7198  82.2801 15.28481680109555

Traccia YUNYAO-1 22 in tempo reale con AllMySat

Download on the App Store